Station Historical Data
Daily Summary for May 29, 2017 Units:  Metric    English   Both
« Previous Day
Next Day »
Daily Weekly Monthly Yearly Custom
  High: Low: Average:
Temperature: 22.3 °C 15.1 °C 18.4 °C
Dew Point: 15.7 °C 6.7 °C 13.1 °C
Humidity: 93% 37% 74%
Wind Speed: 20.9km/h 0km/h 6.1km/h
Wind Gust: 33.8km/h - -
Wind- - SW
Pressure: 1011.7 hPa 1004.3 hPa -
Precipitation: 0 mm    
Historical Graphs
 
 
Tabular Data for May 29, 2017
Time Temperature Dew Point Pressure Wind Wind Speed Wind Gust Humidity Rainfall Rate (Hourly)
00:04 19.1 °C 15.2 °C 1005.6 hPa SW 3.2 km/h 9.7 km/h 78% 0 mm
00:09 19.1 °C 15.2 °C 1005.6 hPa SSW 4.8 km/h 9.7 km/h 78% 0 mm
00:14 19.1 °C 15.2 °C 1005.6 hPa SSW 3.2 km/h 6.4 km/h 78% 0 mm
00:19 19.1 °C 15.2 °C 1005.6 hPa SSW 1.6 km/h 8 km/h 78% 0 mm
00:24 19.1 °C 15.1 °C 1005.6 hPa SSW 4.8 km/h 11.3 km/h 78% 0 mm
00:29 19.1 °C 15.1 °C 1005.6 hPa WSW 9.7 km/h 12.9 km/h 78% 0 mm
00:34 19.1 °C 15.1 °C 1005.3 hPa SW 6.4 km/h 12.9 km/h 78% 0 mm
00:39 19.1 °C 15.1 °C 1005.3 hPa SW 6.4 km/h 12.9 km/h 78% 0 mm
00:44 19.1 °C 15.1 °C 1005.3 hPa SW 6.4 km/h 14.5 km/h 78% 0 mm
00:49 19 °C 15.3 °C 1005.3 hPa SSW 3.2 km/h 8 km/h 79% 0 mm
00:54 19 °C 15.3 °C 1005.3 hPa WSW 6.4 km/h 11.3 km/h 79% 0 mm
00:59 18.9 °C 15.2 °C 1005.3 hPa SW 4.8 km/h 9.7 km/h 79% 0 mm
01:04 18.9 °C 15.2 °C 1005.3 hPa SSW 4.8 km/h 11.3 km/h 79% 0 mm
01:09 18.8 °C 15.1 °C 1005 hPa South 1.6 km/h 9.7 km/h 79% 0 mm
01:14 18.8 °C 15.1 °C 1005 hPa South 3.2 km/h 8 km/h 79% 0 mm
01:19 18.8 °C 15.1 °C 1005 hPa South 3.2 km/h 8 km/h 79% 0 mm
01:24 18.7 °C 15.2 °C 1004.6 hPa SE 1.6 km/h 8 km/h 80% 0 mm
01:29 18.7 °C 15.2 °C 1004.6 hPa SE 1.6 km/h 4.8 km/h 80% 0 mm
01:34 18.6 °C 15.1 °C 1004.6 hPa South 1.6 km/h 4.8 km/h 80% 0 mm
01:39 18.5 °C 15 °C 1004.3 hPa South 1.6 km/h 6.4 km/h 80% 0 mm
01:44 18.5 °C 15 °C 1004.3 hPa South 1.6 km/h 6.4 km/h 80% 0 mm
01:49 18.4 °C 15.1 °C 1004.3 hPa SSW 1.6 km/h 6.4 km/h 81% 0 mm
01:54 18.4 °C 15.1 °C 1004.3 hPa SSW 1.6 km/h 6.4 km/h 81% 0 mm
01:59 18.4 °C 15.1 °C 1004.3 hPa Calm   6.4 km/h 81% 0 mm
02:04 18.4 °C 15.1 °C 1004.3 hPa SW 1.6 km/h 6.4 km/h 81% 0 mm
02:09 18.3 °C 14.9 °C 1004.3 hPa Calm   4.8 km/h 81% 0 mm
02:14 18.3 °C 15.2 °C 1004.3 hPa SSW 1.6 km/h 6.4 km/h 82% 0 mm
02:19 18.2 °C 15.1 °C 1004.6 hPa Calm   6.4 km/h 82% 0 mm
02:24 18.2 °C 15.1 °C 1004.6 hPa SSW 3.2 km/h 6.4 km/h 82% 0 mm
02:29 18.2 °C 15.1 °C 1004.3 hPa Calm   4.8 km/h 82% 0 mm
02:34 18.2 °C 15.1 °C 1004.6 hPa SSW 1.6 km/h 4.8 km/h 82% 0 mm
02:39 18.2 °C 15.2 °C 1004.6 hPa SW 1.6 km/h 4.8 km/h 83% 0 mm
02:44 18.1 °C 15.2 °C 1004.6 hPa SW 3.2 km/h 4.8 km/h 83% 0 mm
02:49 18.1 °C 15.1 °C 1004.6 hPa SW 1.6 km/h 9.7 km/h 83% 0 mm
02:54 18.1 °C 15.1 °C 1005 hPa SW 1.6 km/h 9.7 km/h 83% 0 mm
02:59 18.1 °C 15.3 °C 1005 hPa SW 3.2 km/h 8 km/h 84% 0 mm
03:04 18.1 °C 15.3 °C 1005 hPa Calm   6.4 km/h 84% 0 mm
03:09 18.1 °C 15.3 °C 1005.3 hPa SW 3.2 km/h 6.4 km/h 84% 0 mm
03:14 18.1 °C 15.3 °C 1005.3 hPa Calm   6.4 km/h 84% 0 mm
03:19 18 °C 15.3 °C 1005.3 hPa SSW 4.8 km/h 4.8 km/h 84% 0 mm
03:24 17.9 °C 15.4 °C 1005.3 hPa SSW 1.6 km/h 6.4 km/h 85% 0 mm
03:29 17.9 °C 15.3 °C 1005.6 hPa Calm   4.8 km/h 85% 0 mm
03:34 17.9 °C 15.3 °C 1005.3 hPa Calm   3.2 km/h 85% 0 mm
03:39 17.8 °C 15.4 °C 1005.3 hPa SW 1.6 km/h 8 km/h 86% 0 mm
03:44 17.8 °C 15.4 °C 1005.3 hPa SW 1.6 km/h 8 km/h 86% 0 mm
03:49 17.8 °C 15.4 °C 1005.3 hPa SW 3.2 km/h 8 km/h 86% 0 mm
03:54 17.7 °C 15.3 °C 1005.3 hPa SW 3.2 km/h 6.4 km/h 86% 0 mm
03:59 17.7 °C 15.3 °C 1005.3 hPa SW 4.8 km/h 6.4 km/h 86% 0 mm
04:04 17.7 °C 15.5 °C 1005.3 hPa SW 1.6 km/h 4.8 km/h 87% 0 mm
04:09 17.7 °C 15.5 °C 1005.3 hPa SW 1.6 km/h 6.4 km/h 87% 0 mm
04:14 17.6 °C 15.4 °C 1005.3 hPa WSW 1.6 km/h 8 km/h 87% 0 mm
04:19 17.6 °C 15.4 °C 1005.3 hPa WSW 3.2 km/h 8 km/h 87% 0 mm
04:24 17.6 °C 15.6 °C 1005.3 hPa WSW 4.8 km/h 8 km/h 88% 0 mm
04:29 17.6 °C 15.4 °C 1005.3 hPa WSW 4.8 km/h 9.7 km/h 87% 0 mm
04:34 17.4 °C 15.3 °C 1005.3 hPa WSW 4.8 km/h 6.4 km/h 87% 0 mm
04:39 17.3 °C 15.1 °C 1005.6 hPa WSW 4.8 km/h 11.3 km/h 87% 0 mm
04:44 17.1 °C 14.9 °C 1005.6 hPa West 3.2 km/h 11.3 km/h 87% 0 mm
04:49 16.9 °C 14.7 °C 1005.6 hPa WSW 4.8 km/h 11.3 km/h 87% 0 mm
04:54 16.8 °C 14.6 °C 1005.6 hPa SW 4.8 km/h 9.7 km/h 87% 0 mm
04:59 16.7 °C 14.5 °C 1005.6 hPa WSW 8 km/h 11.3 km/h 87% 0 mm
05:04 16.6 °C 14.4 °C 1005.6 hPa WSW 4.8 km/h 9.7 km/h 87% 0 mm
05:09 16.5 °C 14.3 °C 1005.6 hPa SW 4.8 km/h 9.7 km/h 87% 0 mm
05:14 16.4 °C 14.2 °C 1005.6 hPa SW 6.4 km/h 12.9 km/h 87% 0 mm
05:19 16.3 °C 14.3 °C 1005.6 hPa WSW 8 km/h 14.5 km/h 88% 0 mm
05:24 16.2 °C 14.2 °C 1005.6 hPa SW 8 km/h 14.5 km/h 88% 0 mm
05:29 16.1 °C 14.1 °C 1005.6 hPa SW 8 km/h 14.5 km/h 88% 0 mm
05:34 16 °C 14 °C 1005.6 hPa WNW 9.7 km/h 22.5 km/h 88% 0 mm
05:39 15.9 °C 14.1 °C 1005.6 hPa WSW 3.2 km/h 12.9 km/h 89% 0 mm
05:44 15.9 °C 14.1 °C 1005.6 hPa WSW 6.4 km/h 14.5 km/h 89% 0.25 mm
05:49 15.8 °C 14 °C 1005.6 hPa WSW 8 km/h 9.7 km/h 89% 0.25 mm
05:54 15.8 °C 13.9 °C 1006 hPa SW 4.8 km/h 12.9 km/h 89% 0.25 mm
05:59 15.8 °C 14.2 °C 1006 hPa SW 4.8 km/h 12.9 km/h 90% 0.51 mm
06:04 15.8 °C 14.2 °C 1006 hPa West 4.8 km/h 8 km/h 90% 0.51 mm
06:09 15.8 °C 14.2 °C 1006.3 hPa WSW 4.8 km/h 9.7 km/h 90% 0.51 mm
06:14 15.8 °C 14.2 °C 1006.3 hPa WSW 4.8 km/h 12.9 km/h 90% 0.51 mm
06:19 15.8 °C 14.2 °C 1006.7 hPa WSW 6.4 km/h 14.5 km/h 90% 0.51 mm
06:24 15.7 °C 14.1 °C 1006.7 hPa WSW 6.4 km/h 16.1 km/h 90% 0.76 mm
06:29 15.7 °C 14.3 °C 1007 hPa WSW 6.4 km/h 16.1 km/h 91% 0.76 mm
06:34 15.7 °C 14.3 °C 1007 hPa WSW 4.8 km/h 12.9 km/h 91% 0.76 mm
06:39 15.7 °C 14.3 °C 1006.7 hPa WSW 4.8 km/h 9.7 km/h 91% 0.76 mm
06:44 15.7 °C 14.3 °C 1006.7 hPa SW 8 km/h 9.7 km/h 91% 0.76 mm
06:49 15.7 °C 14.2 °C 1006.7 hPa SW 4.8 km/h 9.7 km/h 91% 0.76 mm
06:54 15.7 °C 14.2 °C 1006.7 hPa South 3.2 km/h 6.4 km/h 91% 1.02 mm
06:59 15.6 °C 14.1 °C 1006.7 hPa SW 6.4 km/h 11.3 km/h 91% 0.76 mm
07:04 15.6 °C 14.3 °C 1006.7 hPa SW 1.6 km/h 9.7 km/h 92% 1.02 mm
07:09 15.5 °C 14.2 °C 1007 hPa SW 4.8 km/h 12.9 km/h 92% 1.02 mm
07:14 15.5 °C 14.2 °C 1007 hPa SW 4.8 km/h 12.9 km/h 92% 1.02 mm
07:19 15.5 °C 14.2 °C 1007 hPa SW 4.8 km/h 8 km/h 92% 1.78 mm
07:24 15.5 °C 14.2 °C 1007 hPa WSW 3.2 km/h 8 km/h 92% 1.78 mm
07:29 15.6 °C 14.3 °C 1007 hPa SW 4.8 km/h 9.7 km/h 92% 2.03 mm
07:34 15.6 °C 14.3 °C 1007 hPa WSW 1.6 km/h 8 km/h 92% 3.3 mm
07:39 15.6 °C 14.3 °C 1007 hPa WSW 3.2 km/h 8 km/h 92% 4.06 mm
07:44 15.6 °C 14.3 °C 1007 hPa WSW 3.2 km/h 9.7 km/h 92% 4.57 mm
07:49 15.6 °C 14.3 °C 1007 hPa SW 3.2 km/h 8 km/h 92% 4.83 mm
07:54 15.6 °C 14.3 °C 1007 hPa SW 4.8 km/h 6.4 km/h 92% 5.08 mm
07:59 15.6 °C 14.3 °C 1007 hPa SSW 3.2 km/h 8 km/h 92% 5.59 mm
08:04 15.6 °C 14.4 °C 1007 hPa SW 3.2 km/h 11.3 km/h 93% 5.84 mm
08:09 15.7 °C 14.6 °C 1007 hPa SW 3.2 km/h 6.4 km/h 93% 5.84 mm
08:14 15.8 °C 14.7 °C 1007 hPa SW 3.2 km/h 8 km/h 93% 6.1 mm
08:19 15.9 °C 14.8 °C 1007.3 hPa SW 3.2 km/h 9.7 km/h 93% 5.33 mm
08:24 15.9 °C 14.8 °C 1007.3 hPa SW 3.2 km/h 9.7 km/h 93% 5.08 mm
08:34 16.2 °C 15.1 °C 1007.3 hPa WSW 1.6 km/h 8 km/h 93% 3.81 mm
08:39 16.3 °C 15.2 °C 1007.3 hPa WSW 6.4 km/h 6.4 km/h 93% 3.05 mm
08:44 16.3 °C 15.2 °C 1007.3 hPa SW 3.2 km/h 9.7 km/h 93% 2.29 mm
08:49 16.3 °C 15.2 °C 1007.3 hPa SW 4.8 km/h 9.7 km/h 93% 2.03 mm
08:54 16.3 °C 15.2 °C 1007.3 hPa SW 4.8 km/h 8 km/h 93% 1.52 mm
08:59 16.3 °C 15.2 °C 1007.3 hPa SW 4.8 km/h 8 km/h 93% 1.02 mm
09:04 16.4 °C 15.3 °C 1007.7 hPa SW 3.2 km/h 8 km/h 93% 0.51 mm
09:09 16.5 °C 15.4 °C 1007.7 hPa SW 3.2 km/h 8 km/h 93% 0.51 mm
09:14 16.5 °C 15.4 °C 1007.7 hPa SW 4.8 km/h 11.3 km/h 93% 0.25 mm
09:19 16.5 °C 15.4 °C 1007.7 hPa SSW 1.6 km/h 9.7 km/h 93% 0.25 mm
09:24 16.7 °C 15.3 °C 1007.7 hPa SW 4.8 km/h 9.7 km/h 92% 0.25 mm
09:29 16.8 °C 15.7 °C 1007.3 hPa SW 4.8 km/h 11.3 km/h 93% 0.25 mm
09:34 16.8 °C 15.5 °C 1007.7 hPa SW 8 km/h 14.5 km/h 92% 0 mm
09:39 16.7 °C 15.4 °C 1007.7 hPa WSW 4.8 km/h 14.5 km/h 92% 0 mm
09:44 16.7 °C 15.4 °C 1007.7 hPa SW 6.4 km/h 14.5 km/h 92% 0 mm
09:49 16.4 °C 15.1 °C 1007.7 hPa SW 8 km/h 20.9 km/h 92% 0 mm
09:54 16.1 °C 14.8 °C 1007.7 hPa SW 9.7 km/h 20.9 km/h 92% 0 mm
09:59 15.9 °C 14.6 °C 1008 hPa SW 11.3 km/h 24.1 km/h 92% 0 mm
10:04 15.7 °C 14.4 °C 1008 hPa SW 12.9 km/h 24.1 km/h 92% 0 mm
10:09 15.6 °C 14.3 °C 1008 hPa SW 19.3 km/h 19.3 km/h 92% 0 mm
10:14 15.3 °C 14.1 °C 1008 hPa WSW 9.7 km/h 19.3 km/h 92% 0 mm
10:19 15.3 °C 14 °C 1008 hPa WSW 8 km/h 24.1 km/h 92% 0 mm
10:24 15.4 °C 14.3 °C 1008 hPa SW 19.3 km/h 25.7 km/h 93% 0 mm
10:29 15.3 °C 14.2 °C 1008 hPa West 9.7 km/h 19.3 km/h 93% 0 mm
10:34 15.2 °C 13.9 °C 1008 hPa SW 4.8 km/h 25.7 km/h 92% 0 mm
10:39 15.2 °C 13.9 °C 1008 hPa West 8 km/h 24.1 km/h 92% 0 mm
10:44 15.2 °C 14.1 °C 1008 hPa SW 11.3 km/h 24.1 km/h 93% 0 mm
10:49 15.2 °C 14.1 °C 1008 hPa SW 9.7 km/h 20.9 km/h 93% 0 mm
10:54 15.2 °C 14.1 °C 1008.4 hPa SW 9.7 km/h 24.1 km/h 93% 0 mm
10:59 15.2 °C 14.1 °C 1008.4 hPa SW 11.3 km/h 24.1 km/h 93% 0 mm
11:04 15.2 °C 14.1 °C 1008.7 hPa SW 11.3 km/h 20.9 km/h 93% 0 mm
11:09 15.1 °C 13.9 °C 1008.7 hPa SSW 11.3 km/h 20.9 km/h 93% 0 mm
11:14 15.2 °C 14.1 °C 1008.7 hPa WSW 9.7 km/h 20.9 km/h 93% 0 mm
11:19 15.2 °C 14.1 °C 1008.7 hPa WSW 8 km/h 16.1 km/h 93% 0 mm
11:24 15.2 °C 14.1 °C 1008.7 hPa WSW 8 km/h 17.7 km/h 93% 0 mm
11:29 15.2 °C 14.1 °C 1009 hPa WSW 9.7 km/h 19.3 km/h 93% 0 mm
11:34 15.3 °C 14.2 °C 1009.4 hPa West 9.7 km/h 22.5 km/h 93% 0 mm
11:39 15.6 °C 14.4 °C 1009.4 hPa West 8 km/h 20.9 km/h 93% 0 mm
11:44 15.8 °C 14.7 °C 1009.4 hPa WSW 9.7 km/h 20.9 km/h 93% 0 mm
11:49 15.9 °C 14.7 °C 1009.4 hPa West 11.3 km/h 14.5 km/h 92% 0 mm
11:54 16 °C 14.7 °C 1009.4 hPa SW 8 km/h 19.3 km/h 92% 0 mm
11:59 16.2 °C 14.5 °C 1009.4 hPa SSW 8 km/h 19.3 km/h 90% 0 mm
12:04 16.7 °C 14.9 °C 1009.4 hPa WSW 9.7 km/h 17.7 km/h 89% 0 mm
12:09 16.8 °C 14.8 °C 1009.4 hPa SW 16.1 km/h 20.9 km/h 88% 0 mm
12:14 16.6 °C 14.6 °C 1009.4 hPa SW 11.3 km/h 22.5 km/h 88% 0 mm
12:19 16.9 °C 14.9 °C 1009.4 hPa SW 9.7 km/h 22.5 km/h 88% 0 mm
12:24 17.1 °C 14.9 °C 1009.7 hPa WSW 8 km/h 17.7 km/h 87% 0 mm
12:29 17.1 °C 14.5 °C 1009.4 hPa SW 9.7 km/h 24.1 km/h 85% 0 mm
12:34 17.6 °C 14.8 °C 1009.4 hPa SW 12.9 km/h 24.1 km/h 84% 0 mm
12:39 18.2 °C 15.1 °C 1009.7 hPa WSW 11.3 km/h 24.1 km/h 82% 0 mm
12:44 17.8 °C 14.3 °C 1009.7 hPa WSW 16.1 km/h 20.9 km/h 80% 0 mm
12:49 18.1 °C 14.8 °C 1009.4 hPa West 6.4 km/h 24.1 km/h 81% 0 mm
12:54 18.7 °C 15.4 °C 1009.7 hPa West 9.7 km/h 19.3 km/h 81% 0 mm
12:59 19.2 °C 15.2 °C 1009.7 hPa West 14.5 km/h 20.9 km/h 78% 0 mm
13:04 18.7 °C 14.3 °C 1009.7 hPa SW 9.7 km/h 22.5 km/h 76% 0 mm
13:09 18.8 °C 14.7 °C 1010 hPa West 16.1 km/h 24.1 km/h 77% 0 mm
13:14 18.7 °C 14.8 °C 1010 hPa WSW 12.9 km/h 24.1 km/h 78% 0 mm
13:19 18.8 °C 14.8 °C 1010 hPa SW 11.3 km/h 24.1 km/h 78% 0 mm
13:24 18.8 °C 14.3 °C 1009.7 hPa SW 11.3 km/h 22.5 km/h 75% 0 mm
13:29 18.8 °C 14.9 °C 1009.7 hPa West 4.8 km/h 22.5 km/h 78% 0 mm
13:34 19 °C 14.7 °C 1009.7 hPa SW 11.3 km/h 25.7 km/h 76% 0 mm
13:39 19.2 °C 15.1 °C 1009.7 hPa SW 12.9 km/h 20.9 km/h 77% 0 mm
13:44 19.3 °C 14.8 °C 1009.7 hPa WSW 11.3 km/h 20.9 km/h 75% 0 mm
13:54 19.7 °C 14.5 °C 1009.7 hPa SSW 8 km/h 20.9 km/h 72% 0 mm
13:59 19.8 °C 15 °C 1009.7 hPa SW 11.3 km/h 22.5 km/h 74% 0 mm
14:04 19.8 °C 14 °C 1009.7 hPa West 9.7 km/h 32.2 km/h 69% 0 mm
14:09 20.1 °C 15.1 °C 1009.7 hPa South 8 km/h 19.3 km/h 73% 0 mm
14:14 20.1 °C 14.6 °C 1009.7 hPa SW 11.3 km/h 25.7 km/h 71% 0 mm
14:19 19.8 °C 14.4 °C 1009.7 hPa SW 12.9 km/h 25.7 km/h 71% 0 mm
14:24 19.7 °C 14.3 °C 1010 hPa WSW 14.5 km/h 32.2 km/h 71% 0 mm
14:29 19.8 °C 14.6 °C 1010 hPa WSW 3.2 km/h 25.7 km/h 72% 0 mm
14:34 19.2 °C 14 °C 1010 hPa SW 12.9 km/h 29 km/h 72% 0 mm
14:39 19.3 °C 14.4 °C 1010 hPa WSW 12.9 km/h 27.4 km/h 73% 0 mm
14:44 19.7 °C 14.5 °C 1010 hPa WSW 12.9 km/h 27.4 km/h 72% 0 mm
14:49 20 °C 15 °C 1010 hPa WSW 12.9 km/h 25.7 km/h 73% 0 mm
14:54 19.7 °C 14.5 °C 1010 hPa WSW 11.3 km/h 27.4 km/h 72% 0 mm
14:59 19.5 °C 14.6 °C 1010 hPa WSW 14.5 km/h 27.4 km/h 73% 0 mm
15:04 20 °C 15 °C 1010 hPa West 9.7 km/h 17.7 km/h 73% 0 mm
15:09 20 °C 14.6 °C 1010 hPa WSW 8 km/h 24.1 km/h 71% 0 mm
15:14 19.5 °C 14.1 °C 1010.4 hPa SW 11.3 km/h 24.1 km/h 71% 0 mm
15:19 19.7 °C 14.5 °C 1010.4 hPa SW 11.3 km/h 25.7 km/h 72% 0 mm
15:24 19.9 °C 14.7 °C 1010.4 hPa West 20.9 km/h 22.5 km/h 72% 0 mm
15:29 19.9 °C 14.7 °C 1010.4 hPa WSW 8 km/h 24.1 km/h 72% 0 mm
15:34 20.1 °C 14.4 °C 1010.4 hPa WSW 17.7 km/h 24.1 km/h 70% 0 mm
15:39 19.8 °C 14.2 °C 1010.4 hPa West 8 km/h 24.1 km/h 70% 0 mm
15:44 19.9 °C 13.8 °C 1010.4 hPa WSW 12.9 km/h 27.4 km/h 68% 0 mm
15:49 20.3 °C 14.2 °C 1010.4 hPa WSW 11.3 km/h 27.4 km/h 68% 0 mm
15:54 20.2 °C 13.7 °C 1010.4 hPa SW 11.3 km/h 22.5 km/h 66% 0 mm
15:59 20.4 °C 13.1 °C 1010.4 hPa SSW 11.3 km/h 29 km/h 63% 0 mm
16:04 20.4 °C 13.2 °C 1010.4 hPa SW 11.3 km/h 29 km/h 63% 0 mm
16:09 20.4 °C 13.1 °C 1010.4 hPa WNW 8 km/h 27.4 km/h 63% 0 mm
16:14 20.4 °C 12.7 °C 1010.4 hPa WSW 11.3 km/h 27.4 km/h 61% 0 mm
16:19 20.3 °C 12.5 °C 1010.7 hPa SW 11.3 km/h 22.5 km/h 61% 0 mm
16:24 20.4 °C 12.4 °C 1010.7 hPa WSW 12.9 km/h 29 km/h 60% 0 mm
16:29 20.4 °C 11.9 °C 1010.7 hPa West 16.1 km/h 20.9 km/h 58% 0 mm
16:34 20.4 °C 11.6 °C 1011.1 hPa SSW 20.9 km/h 33.8 km/h 57% 0 mm
16:39 20.4 °C 11.3 °C 1011.1 hPa WSW 14.5 km/h 29 km/h 56% 0 mm
16:44 20.3 °C 11 °C 1010.7 hPa WSW 16.1 km/h 30.6 km/h 55% 0 mm
16:49 20.5 °C 11.2 °C 1010.7 hPa WSW 14.5 km/h 30.6 km/h 55% 0 mm
16:54 20.7 °C 11.3 °C 1011.1 hPa WSW 14.5 km/h 27.4 km/h 55% 0 mm
16:59 21 °C 11.6 °C 1011.1 hPa WSW 12.9 km/h 27.4 km/h 55% 0 mm
17:04 21.1 °C 11.4 °C 1011.1 hPa WSW 9.7 km/h 22.5 km/h 54% 0 mm
17:09 21 °C 11.3 °C 1011.1 hPa SW 11.3 km/h 27.4 km/h 54% 0 mm
17:14 21.1 °C 11.4 °C 1011.1 hPa West 6.4 km/h 19.3 km/h 54% 0 mm
17:19 21.3 °C 11.6 °C 1011.1 hPa SW 9.7 km/h 17.7 km/h 54% 0 mm
17:24 21.6 °C 11 °C 1010.7 hPa SW 8 km/h 24.1 km/h 51% 0 mm
17:29 21.7 °C 11.1 °C 1010.7 hPa SW 14.5 km/h 19.3 km/h 51% 0 mm
17:34 21.8 °C 11.5 °C 1011.1 hPa WSW 6.4 km/h 25.7 km/h 52% 0 mm
17:39 22 °C 10.8 °C 1011.1 hPa WSW 6.4 km/h 25.7 km/h 49% 0 mm
17:44 22.1 °C 10.2 °C 1011.1 hPa WSW 11.3 km/h 25.7 km/h 47% 0 mm
17:49 22.1 °C 9.9 °C 1011.1 hPa SW 11.3 km/h 29 km/h 46% 0 mm
17:54 22.2 °C 9.7 °C 1011.1 hPa SW 11.3 km/h 29 km/h 45% 0 mm
17:59 22.3 °C 9.8 °C 1011.1 hPa WSW 9.7 km/h 22.5 km/h 45% 0 mm
18:04 22 °C 9.2 °C 1011.1 hPa WNW 9.7 km/h 20.9 km/h 44% 0 mm
18:09 21.8 °C 9.9 °C 1011.1 hPa West 6.4 km/h 20.9 km/h 47% 0 mm
18:14 21.7 °C 9.2 °C 1010.7 hPa WSW 9.7 km/h 20.9 km/h 45% 0 mm
18:19 21.7 °C 9.6 °C 1010.7 hPa WSW 9.7 km/h 20.9 km/h 46% 0 mm
18:24 21.8 °C 9 °C 1010.7 hPa SW 9.7 km/h 19.3 km/h 44% 0 mm
18:29 21.8 °C 8.7 °C 1010.7 hPa WSW 6.4 km/h 22.5 km/h 43% 0 mm
18:34 21.8 °C 8.3 °C 1010.7 hPa WSW 8 km/h 16.1 km/h 42% 0 mm
18:39 21.8 °C 8 °C 1010.7 hPa WSW 4.8 km/h 20.9 km/h 41% 0 mm
18:44 21.9 °C 8.7 °C 1010.7 hPa SW 9.7 km/h 12.9 km/h 43% 0 mm
18:49 21.9 °C 8.8 °C 1010.7 hPa SW 6.4 km/h 19.3 km/h 43% 0 mm
18:54 22 °C 7.8 °C 1010.7 hPa SW 8 km/h 19.3 km/h 40% 0 mm
18:59 22.1 °C 8.2 °C 1010.7 hPa SW 3.2 km/h 12.9 km/h 41% 0 mm
19:04 22.2 °C 7.9 °C 1010.7 hPa SW 8 km/h 8 km/h 40% 0 mm
19:09 22.2 °C 7.9 °C 1010.7 hPa SW 1.6 km/h 8 km/h 40% 0 mm
19:14 21.9 °C 7.3 °C 1010.7 hPa SW 3.2 km/h 6.4 km/h 39% 0 mm
19:19 21.9 °C 7.3 °C 1010.4 hPa SW 3.2 km/h 8 km/h 39% 0 mm
19:24 22.1 °C 7.1 °C 1010.4 hPa SW 3.2 km/h 8 km/h 38% 0 mm
19:29 22 °C 7.4 °C 1010.4 hPa SW 3.2 km/h 8 km/h 39% 0 mm
19:34 22.1 °C 7.1 °C 1010.4 hPa WSW 3.2 km/h 9.7 km/h 38% 0 mm
19:39 22.1 °C 6.7 °C 1010.4 hPa SW 3.2 km/h 9.7 km/h 37% 0 mm
19:44 22.1 °C 7.8 °C 1010.7 hPa SW 6.4 km/h 6.4 km/h 40% 0 mm
19:49 22 °C 7.4 °C 1010.7 hPa SW 1.6 km/h 6.4 km/h 39% 0 mm
19:54 21.9 °C 7.3 °C 1010.7 hPa SW 1.6 km/h 4.8 km/h 39% 0 mm
19:59 21.7 °C 7.8 °C 1010.7 hPa SW 1.6 km/h 4.8 km/h 41% 0 mm
20:04 21.3 °C 7.6 °C 1010.7 hPa SW 3.2 km/h 3.2 km/h 41% 0 mm
20:09 21.2 °C 7.7 °C 1010.7 hPa SW 1.6 km/h 4.8 km/h 42% 0 mm
20:14 20.8 °C 8.1 °C 1010.7 hPa Calm   3.2 km/h 44% 0 mm
20:19 20.6 °C 7.9 °C 1010.7 hPa Calm   3.2 km/h 44% 0 mm
20:24 20.3 °C 8 °C 1010.7 hPa Calm     45% 0 mm
20:29 20.1 °C 7.7 °C 1010.7 hPa Calm     45% 0 mm
20:34 20.1 °C 7.7 °C 1010.7 hPa Calm     45% 0 mm
20:39 19.8 °C 8.2 °C 1010.7 hPa Calm     47% 0 mm
20:44 19.7 °C 8.3 °C 1010.7 hPa Calm     48% 0 mm
20:49 19.6 °C 8.6 °C 1010.7 hPa SSW 1.6 km/h 4.8 km/h 49% 0 mm
20:54 19.5 °C 8.8 °C 1010.7 hPa WSW 1.6 km/h 9.7 km/h 50% 0 mm
20:59 19.4 °C 8.7 °C 1010.7 hPa Calm   3.2 km/h 50% 0 mm
21:04 19.2 °C 8.6 °C 1010.7 hPa Calm     50% 0 mm
21:09 19.1 °C 8.7 °C 1010.7 hPa SW 1.6 km/h 4.8 km/h 51% 0 mm
21:14 19.2 °C 8.8 °C 1010.7 hPa SSW 6.4 km/h 8 km/h 51% 0 mm
21:19 19.4 °C 9.3 °C 1010.7 hPa SSW 3.2 km/h 9.7 km/h 52% 0 mm
21:24 19.6 °C 9.7 °C 1010.7 hPa SSW 3.2 km/h 9.7 km/h 53% 0 mm
21:29 19.3 °C 9.8 °C 1010.7 hPa SSW 1.6 km/h 9.7 km/h 54% 0 mm
21:34 19.4 °C 10.1 °C 1010.7 hPa SSW 1.6 km/h 6.4 km/h 55% 0 mm
21:39 19.4 °C 10.2 °C 1010.7 hPa SSW 1.6 km/h 8 km/h 55% 0 mm
21:44 19.6 °C 10.6 °C 1011.1 hPa Calm   6.4 km/h 56% 0 mm
21:49 19.6 °C 10.8 °C 1011.1 hPa SSW 1.6 km/h 6.4 km/h 57% 0 mm
21:54 19.5 °C 10.5 °C 1011.1 hPa SSW 1.6 km/h 8 km/h 56% 0 mm
21:59 19.5 °C 10.8 °C 1011.1 hPa South 3.2 km/h 8 km/h 57% 0 mm
22:04 19.4 °C 10.9 °C 1011.4 hPa South 1.6 km/h 8 km/h 58% 0 mm
22:09 19.4 °C 10.9 °C 1011.1 hPa SSW 4.8 km/h 8 km/h 58% 0 mm
22:14 19.3 °C 11.1 °C 1011.4 hPa SSW 1.6 km/h 6.4 km/h 59% 0 mm
22:19 19.2 °C 10.9 °C 1011.4 hPa SSW 3.2 km/h 8 km/h 59% 0 mm
22:24 19.3 °C 11.1 °C 1011.4 hPa SSW 6.4 km/h 14.5 km/h 59% 0 mm
22:29 19.4 °C 11.2 °C 1011.4 hPa SSW 1.6 km/h 8 km/h 59% 0 mm
22:34 19.4 °C 11.2 °C 1011.4 hPa SSW 4.8 km/h 9.7 km/h 59% 0 mm
22:39 19.3 °C 11.4 °C 1011.4 hPa SSW 6.4 km/h 9.7 km/h 60% 0 mm
22:44 19.2 °C 11.2 °C 1011.4 hPa SSW 3.2 km/h 9.7 km/h 60% 0 mm
22:49 19.3 °C 11.3 °C 1011.4 hPa SSW 3.2 km/h 9.7 km/h 60% 0 mm
22:54 19.2 °C 11.2 °C 1011.4 hPa SW 3.2 km/h 9.7 km/h 60% 0 mm
22:59 19.1 °C 11.4 °C 1011.4 hPa SSW 1.6 km/h 6.4 km/h 61% 0 mm
23:04 18.8 °C 11.3 °C 1011.4 hPa SW 1.6 km/h 6.4 km/h 62% 0 mm
23:09 18.4 °C 11.3 °C 1011.4 hPa Calm   4.8 km/h 63% 0 mm
23:14 18.2 °C 11.2 °C 1011.4 hPa Calm   3.2 km/h 64% 0 mm
23:19 18.1 °C 11.4 °C 1011.4 hPa WSW 3.2 km/h 6.4 km/h 65% 0 mm
23:24 17.9 °C 11.3 °C 1011.7 hPa SW 1.6 km/h 8 km/h 65% 0 mm
23:29 18.2 °C 11.6 °C 1011.4 hPa SSW 1.6 km/h 6.4 km/h 65% 0 mm
23:34 18.4 °C 11.4 °C 1011.7 hPa SSW 4.8 km/h 8 km/h 64% 0 mm
23:39 18.4 °C 11.4 °C 1011.7 hPa SW 4.8 km/h 9.7 km/h 64% 0 mm
23:44 18.4 °C 11.4 °C 1011.7 hPa SSW 4.8 km/h 9.7 km/h 64% 0 mm
23:49 18.4 °C 11.4 °C 1011.7 hPa Calm   6.4 km/h 64% 0 mm
23:54 18.2 °C 11.6 °C 1011.7 hPa SSW 1.6 km/h 8 km/h 65% 0 mm
23:59 18.1 °C 11.6 °C 1011.4 hPa SW 1.6 km/h 8 km/h 66% 0 mm
Buffalo, New York, USA
Compliments of Weather Underground - 2.5 mb